owner,sensor,date,latitude,longitude,vertical_datum,direction_of_sea_water_velocity,sea_water_speed,upward_sea_water_velocity,qcFlag 
TABS,ioos:station:wmo:42049:1,2010-06-01T00:00:00Z,28.3507,-96.0058,2.0,59.995320140149,28.99589798575,-99999.0,'1111122,1111122,1199999999' 
TABS,ioos:station:wmo:42049:1,2010-06-01T00:30:00Z,28.3507,-96.0058,2.0,52.999131445448,27.998073147986,-99999.0,'1111122,1111122,1199999999' 
TABS,ioos:station:wmo:42049:1,2010-06-01T01:00:00Z,28.3507,-96.0058,2.0,52.989056024379,25.998078775171,-99999.0,'1111122,1111122,1199999999' 
TABS,ioos:station:wmo:42049:1,2010-06-01T03:30:00Z,28.3507,-96.0058,2.0,43.463535,34.01699722,-99999.0,'11111222,11111222,99999999' 
TABS,ioos:station:wmo:42049:1,2010-06-01T04:00:00Z,28.3507,-96.0058,2.0,42.08496643,31.83979428,-99999.0,'11111222,11111222,99999999' 
TABS,ioos:station:wmo:42049:1,2010-06-01T04:30:00Z,28.3507,-96.0058,2.0,35.59223911,34.26051955,-99999.0,'11111222,11111222,99999999' 
TABS,ioos:station:wmo:42049:1,2010-06-01T05:00:00Z,28.3507,-96.0058,2.0,37.63474993,34.91510991,-99999.0,'11111222,11111222,99999999' 
TABS,ioos:station:wmo:42049:1,2010-06-01T05:30:00Z,28.3507,-96.0058,2.0,37.70284014,36.46385196,-99999.0,'11111222,11111222,99999999' 
TABS,ioos:station:wmo:42049:1,2010-06-01T06:00:00Z,28.3507,-96.0058,2.0,42.33416263,38.31008222,-99999.0,'11111222,11111222,99999999' 
TABS,ioos:station:wmo:42049:1,2010-06-01T06:30:00Z,28.3507,-96.0058,2.0,39.74243769,38.27408784,-99999.0,'11111222,11111222,99999999' 
TABS,ioos:station:wmo:42049:1,2010-06-01T07:00:00Z,28.3507,-96.0058,2.0,43.11192164,41.20427162,-99999.0,'11111222,11111222,99999999' 
TABS,ioos:station:wmo:42049:1,2010-06-01T07:30:00Z,28.3507,-96.0058,2.0,41.45534706,44.83148893,-99999.0,'11111222,11111222,99999999' 
TABS,ioos:station:wmo:42049:1,2010-06-01T08:00:00Z,28.3507,-96.0058,2.0,42.43211734,45.76748628,-99999.0,'11111222,11111222,99999999' 
TABS,ioos:station:wmo:42049:1,2010-06-01T08:30:00Z,28.3507,-96.0058,2.0,48.82194778,41.58550709,-99999.0,'11111222,11111222,99999999' 
TABS,ioos:station:wmo:42049:1,2010-06-01T09:00:00Z,28.3507,-96.0058,2.0,45.42181197,42.27198836,-99999.0,'11111222,11111222,99999999' 
TABS,ioos:station:wmo:42049:1,2010-06-01T09:30:00Z,28.3507,-96.0058,2.0,49.09487888,47.23510241,-99999.0,'11111222,11111222,99999999' 
TABS,ioos:station:wmo:42049:1,2010-06-01T10:00:00Z,28.3507,-96.0058,2.0,51.73100775,46.03172493,-99999.0,'11111222,11111222,99999999' 
TABS,ioos:station:wmo:42049:1,2010-06-01T10:30:00Z,28.3507,-96.0058,2.0,57.21714664,48.35095552,-99999.0,'11111222,11111222,99999999' 
TABS,ioos:station:wmo:42049:1,2010-06-01T11:00:00Z,28.3507,-96.0058,2.0,61.46096108,30.11982238,-99999.0,'11111222,11111222,99999999' 
TABS,ioos:station:wmo:42049:1,2010-06-01T11:30:00Z,28.3507,-96.0058,2.0,56.75200034,47.45878738,-99999.0,'11111222,11111222,99999999' 
TABS,ioos:station:wmo:42049:1,2010-06-01T12:00:00Z,28.3507,-96.0058,2.0,59.75831017,47.77129368,-99999.0,'11111222,11111222,99999999' 
TABS,ioos:station:wmo:42049:1,2010-06-01T12:30:00Z,28.3507,-96.0058,2.0,62.00317928,49.03886622,-99999.0,'11111222,11111222,99999999' 
TABS,ioos:station:wmo:42049:1,2010-06-01T13:00:00Z,28.3507,-96.0058,2.0,68.07859772,39.88373227,-99999.0,'11111222,11111222,99999999' 
TABS,ioos:station:wmo:42049:1,2010-06-01T13:30:00Z,28.3507,-96.0058,2.0,69.67335972,33.62385017,-99999.0,'11111222,11111222,99999999' 
TABS,ioos:station:wmo:42049:1,2010-06-01T14:00:00Z,28.3507,-96.0058,2.0,67.82936911,49.84537792,-99999.0,'11111222,11111222,99999999' 
TABS,ioos:station:wmo:42049:1,2010-06-01T14:30:00Z,28.3507,-96.0058,2.0,66.42439566,50.08004493,-99999.0,'11111222,11111222,99999999' 
TABS,ioos:station:wmo:42049:1,2010-06-01T15:00:00Z,28.3507,-96.0058,2.0,69.18559811,50.34576149,-99999.0,'11111222,11111222,99999999' 
TABS,ioos:station:wmo:42049:1,2010-06-01T15:30:00Z,28.3507,-96.0058,2.0,66.54601195,49.77219806,-99999.0,'11111222,11111222,99999999' 
TABS,ioos:station:wmo:42049:1,2010-06-01T16:00:00Z,28.3507,-96.0058,2.0,69.02305745,50.97864749,-99999.0,'11111222,11111222,99999999' 
TABS,ioos:station:wmo:42049:1,2010-06-01T16:30:00Z,28.3507,-96.0058,2.0,69.74673407,46.73986414,-99999.0,'11111222,11111222,99999999' 
TABS,ioos:station:wmo:42049:1,2010-06-01T17:00:00Z,28.3507,-96.0058,2.0,68.40913153,48.01928154,-99999.0,'11111222,11111222,99999999' 
TABS,ioos:station:wmo:42049:1,2010-06-01T17:30:00Z,28.3507,-96.0058,2.0,68.14156277,55.92032189,-99999.0,'11111222,11111222,99999999' 
TABS,ioos:station:wmo:42049:1,2010-06-01T18:00:00Z,28.3507,-96.0058,2.0,71.57158083,55.8647975,-99999.0,'11111222,11111222,99999999' 
TABS,ioos:station:wmo:42049:1,2010-06-01T18:30:00Z,28.3507,-96.0058,2.0,74.66706135,57.44472212,-99999.0,'11111222,11111222,99999999' 
TABS,ioos:station:wmo:42049:1,2010-06-01T19:00:00Z,28.3507,-96.0058,2.0,75.60145595,57.14496128,-99999.0,'11111222,11111222,99999999' 
TABS,ioos:station:wmo:42049:1,2010-06-01T19:30:00Z,28.3507,-96.0058,2.0,74.84364043,54.46450679,-99999.0,'11111222,11111222,99999999' 
TABS,ioos:station:wmo:42049:1,2010-06-01T20:00:00Z,28.3507,-96.0058,2.0,73.03307365,56.78151988,-99999.0,'11111222,11111222,99999999' 
TABS,ioos:station:wmo:42049:1,2010-06-01T20:30:00Z,28.3507,-96.0058,2.0,73.54193227,52.34471224,-99999.0,'11111222,11111222,99999999' 
TABS,ioos:station:wmo:42049:1,2010-06-01T21:00:00Z,28.3507,-96.0058,2.0,67.34326306,56.09924242,-99999.0,'11111222,11111222,99999999' 
TABS,ioos:station:wmo:42049:1,2010-06-01T21:30:00Z,28.3507,-96.0058,2.0,72.8935448,55.92410035,-99999.0,'11111222,11111222,99999999' 
TABS,ioos:station:wmo:42049:1,2010-06-01T22:00:00Z,28.3507,-96.0058,2.0,69.0715877,51.67943982,-99999.0,'11111222,11111222,99999999' 
TABS,ioos:station:wmo:42049:1,2010-06-01T22:30:00Z,28.3507,-96.0058,2.0,68.72044533,47.91695525,-99999.0,'11111222,11111222,99999999' 
TABS,ioos:station:wmo:42049:1,2010-06-01T23:00:00Z,28.3507,-96.0058,2.0,66.76155269,45.24032935,-99999.0,'11111222,11111222,99999999' 
TABS,ioos:station:wmo:42049:1,2010-06-01T23:30:00Z,28.3507,-96.0058,2.0,62.50218491,44.2263417,-99999.0,'11111222,11111222,99999999' 
TABS,ioos:station:wmo:42049:1,2010-06-02T00:00:00Z,28.3507,-96.0058,2.0,57.185357,41.57408448,-99999.0,'11111222,11111222,99999999' 
TABS,ioos:station:wmo:42049:1,2010-06-02T00:30:00Z,28.3507,-96.0058,2.0,57.47372097,38.23782421,-99999.0,'11111222,11111222,99999999' 
TABS,ioos:station:wmo:42049:1,2010-06-02T02:00:00Z,28.3507,-96.0058,2.0,47.75319888,31.65127644,-99999.0,'11111222,11111222,99999999' 
TABS,ioos:station:wmo:42049:1,2010-06-02T02:30:00Z,28.3507,-96.0058,2.0,43.55906701,44.14449569,-99999.0,'11111222,11111222,99999999' 
TABS,ioos:station:wmo:42049:1,2010-06-02T03:00:00Z,28.3507,-96.0058,2.0,40.89747262,44.08085752,-99999.0,'11111222,11111222,99999999' 
TABS,ioos:station:wmo:42049:1,2010-06-02T03:30:00Z,28.3507,-96.0058,2.0,40.5756459,45.8298178,-99999.0,'11111222,11111222,99999999' 
TABS,ioos:station:wmo:42049:1,2010-06-02T04:00:00Z,28.3507,-96.0058,2.0,37.49384386,46.65876552,-99999.0,'11111222,11111222,99999999' 
TABS,ioos:station:wmo:42049:1,2010-06-02T04:30:00Z,28.3507,-96.0058,2.0,36.47818482,47.66911474,-99999.0,'11111222,11111222,99999999' 
TABS,ioos:station:wmo:42049:1,2010-06-02T05:00:00Z,28.3507,-96.0058,2.0,36.18665376,48.96548274,-99999.0,'11111222,11111222,99999999' 
TABS,ioos:station:wmo:42049:1,2010-06-02T05:30:00Z,28.3507,-96.0058,2.0,36.23755366,46.92685905,-99999.0,'11111222,11111222,99999999' 
TABS,ioos:station:wmo:42049:1,2010-06-02T06:00:00Z,28.3507,-96.0058,2.0,33.66370717,47.98711911,-99999.0,'11111222,11111222,99999999' 
TABS,ioos:station:wmo:42049:1,2010-06-02T06:30:00Z,28.3507,-96.0058,2.0,31.45975025,51.52353443,-99999.0,'11111222,11111222,99999999' 
TABS,ioos:station:wmo:42049:1,2010-06-02T07:00:00Z,28.3507,-96.0058,2.0,32.86268222,54.34687296,-99999.0,'11111222,11111222,99999999' 
TABS,ioos:station:wmo:42049:1,2010-06-02T07:30:00Z,28.3507,-96.0058,2.0,33.73344337,55.1205742,-99999.0,'11111222,11111222,99999999' 
TABS,ioos:station:wmo:42049:1,2010-06-02T08:00:00Z,28.3507,-96.0058,2.0,33.60680353,57.16468928,-99999.0,'11111222,11111222,99999999' 
TABS,ioos:station:wmo:42049:1,2010-06-02T08:30:00Z,28.3507,-96.0058,2.0,34.46748698,58.06303902,-99999.0,'11111222,11111222,99999999' 
TABS,ioos:station:wmo:42049:1,2010-06-02T09:00:00Z,28.3507,-96.0058,2.0,32.13520689,57.13297209,-99999.0,'11111222,11111222,99999999' 
TABS,ioos:station:wmo:42049:1,2010-06-02T09:30:00Z,28.3507,-96.0058,2.0,35.13461076,59.96550425,-99999.0,'11111222,11111222,99999999' 
TABS,ioos:station:wmo:42049:1,2010-06-02T10:00:00Z,28.3507,-96.0058,2.0,34.73177414,58.588795,-99999.0,'11111222,11111222,99999999' 
TABS,ioos:station:wmo:42049:1,2010-06-02T10:30:00Z,28.3507,-96.0058,2.0,39.94436212,59.77803359,-99999.0,'11111222,11111222,99999999' 
TABS,ioos:station:wmo:42049:1,2010-06-02T11:00:00Z,28.3507,-96.0058,2.0,41.68322003,52.79618357,-99999.0,'11111222,11111222,99999999' 
TABS,ioos:station:wmo:42049:1,2010-06-02T11:30:00Z,28.3507,-96.0058,2.0,42.3822161,57.59031169,-99999.0,'11111222,11111222,99999999' 
TABS,ioos:station:wmo:42049:1,2010-06-02T12:00:00Z,28.3507,-96.0058,2.0,46.3257183,59.90797777,-99999.0,'11111222,11111222,99999999' 
TABS,ioos:station:wmo:42049:1,2010-06-02T12:30:00Z,28.3507,-96.0058,2.0,45.52828244,61.36533386,-99999.0,'11111222,11111222,99999999' 
TABS,ioos:station:wmo:42049:1,2010-06-02T13:00:00Z,28.3507,-96.0058,2.0,48.45785413,62.020104,-99999.0,'11111222,11111222,99999999' 
TABS,ioos:station:wmo:42049:1,2010-06-02T13:30:00Z,28.3507,-96.0058,2.0,46.80939602,61.36503565,-99999.0,'11111222,11111222,99999999' 
TABS,ioos:station:wmo:42049:1,2010-06-02T14:00:00Z,28.3507,-96.0058,2.0,45.80518927,61.8991672,-99999.0,'11111222,11111222,99999999' 
TABS,ioos:station:wmo:42049:1,2010-06-02T14:30:00Z,28.3507,-96.0058,2.0,45.10675418,64.5801742,-99999.0,'11111222,11111222,99999999' 
TABS,ioos:station:wmo:42049:1,2010-06-02T15:00:00Z,28.3507,-96.0058,2.0,45.32134054,66.84385462,-99999.0,'11111222,11111222,99999999' 
TABS,ioos:station:wmo:42049:1,2010-06-02T15:30:00Z,28.3507,-96.0058,2.0,47.73160485,66.77017448,-99999.0,'11111222,11111222,99999999' 
TABS,ioos:station:wmo:42049:1,2010-06-02T16:00:00Z,28.3507,-96.0058,2.0,43.67576113,67.0021231,-99999.0,'11111222,11111222,99999999' 
TABS,ioos:station:wmo:42049:1,2010-06-02T16:30:00Z,28.3507,-96.0058,2.0,41.07229023,68.23344121,-99999.0,'11111222,11111222,99999999' 
TABS,ioos:station:wmo:42049:1,2010-06-02T17:00:00Z,28.3507,-96.0058,2.0,40.68686872,71.26607327,-99999.0,'11111222,11111222,99999999' 
TABS,ioos:station:wmo:42049:1,2010-06-02T17:30:00Z,28.3507,-96.0058,2.0,41.21666191,70.40450057,-99999.0,'11111222,11111222,99999999' 
TABS,ioos:station:wmo:42049:1,2010-06-02T18:00:00Z,28.3507,-96.0058,2.0,43.48659501,70.14117906,-99999.0,'11111222,11111222,99999999' 
TABS,ioos:station:wmo:42049:1,2010-06-02T18:30:00Z,28.3507,-96.0058,2.0,47.98835634,60.76653191,-99999.0,'11111222,11111222,99999999' 
TABS,ioos:station:wmo:42049:1,2010-06-02T19:00:00Z,28.3507,-96.0058,2.0,47.66796196,60.00648048,-99999.0,'11111222,11111222,99999999' 
TABS,ioos:station:wmo:42049:1,2010-06-02T19:30:00Z,28.3507,-96.0058,2.0,48.12750739,61.30553727,-99999.0,'11111222,11111222,99999999' 
TABS,ioos:station:wmo:42049:1,2010-06-02T20:00:00Z,28.3507,-96.0058,2.0,69.95717983,33.58396343,-99999.0,'11111222,11111222,99999999' 
TABS,ioos:station:wmo:42049:1,2010-06-02T20:30:00Z,28.3507,-96.0058,2.0,56.94449412,31.80845957,-99999.0,'11111222,11111222,99999999' 
TABS,ioos:station:wmo:42049:1,2010-06-02T21:00:00Z,28.3507,-96.0058,2.0,59.91310386,25.55285111,-99999.0,'11111222,11111222,99999999' 
TABS,ioos:station:wmo:42049:1,2010-06-02T21:30:00Z,28.3507,-96.0058,2.0,54.86999627,29.57763513,-99999.0,'11111222,11111222,99999999' 
TABS,ioos:station:wmo:42049:1,2010-06-02T22:00:00Z,28.3507,-96.0058,2.0,55.62617755,30.90732276,-99999.0,'11111222,11111222,99999999' 
TABS,ioos:station:wmo:42049:1,2010-06-02T22:30:00Z,28.3507,-96.0058,2.0,56.42578114,30.19794033,-99999.0,'11111222,11111222,99999999' 
TABS,ioos:station:wmo:42049:1,2010-06-02T23:00:00Z,28.3507,-96.0058,2.0,63.9664517,32.78663905,-99999.0,'11111222,11111222,99999999' 
TABS,ioos:station:wmo:42049:1,2010-06-02T23:30:00Z,28.3507,-96.0058,2.0,57.03466706,39.03460132,-99999.0,'11111222,11111222,99999999' 
TABS,ioos:station:wmo:42049:1,2010-06-03T00:00:00Z,28.3507,-96.0058,2.0,62.63231094,39.26473481,-99999.0,'11111222,11111222,99999999' 
TABS,ioos:station:wmo:42049:1,2010-06-03T00:30:00Z,28.3507,-96.0058,2.0,67.0223803,40.52540561,-99999.0,'11111222,11111222,99999999' 
TABS,ioos:station:wmo:42049:1,2010-06-03T01:00:00Z,28.3507,-96.0058,2.0,65.99097791,38.70907,-99999.0,'11111222,11111222,99999999' 
TABS,ioos:station:wmo:42049:1,2010-06-03T01:30:00Z,28.3507,-96.0058,2.0,69.11325482,28.38529197,-99999.0,'11111222,11111222,99999999' 
TABS,ioos:station:wmo:42049:1,2010-06-03T02:00:00Z,28.3507,-96.0058,2.0,58.75948694,23.42698017,-99999.0,'11111222,11111222,99999999' 
TABS,ioos:station:wmo:42049:1,2010-06-03T02:30:00Z,28.3507,-96.0058,2.0,54.29984395,31.54857366,-99999.0,'11111222,11111222,99999999' 
TABS,ioos:station:wmo:42049:1,2010-06-03T03:00:00Z,28.3507,-96.0058,2.0,53.44378041,31.06046523,-99999.0,'11111222,11111222,99999999' 
TABS,ioos:station:wmo:42049:1,2010-06-03T03:30:00Z,28.3507,-96.0058,2.0,47.56277808,33.21066395,-99999.0,'11111222,11111222,99999999' 
TABS,ioos:station:wmo:42049:1,2010-06-03T04:00:00Z,28.3507,-96.0058,2.0,44.9661958,35.84324902,-99999.0,'11111222,11111222,99999999' 
TABS,ioos:station:wmo:42049:1,2010-06-03T04:30:00Z,28.3507,-96.0058,2.0,43.59257812,36.2713799,-99999.0,'11111222,11111222,99999999' 
TABS,ioos:station:wmo:42049:1,2010-06-03T05:00:00Z,28.3507,-96.0058,2.0,44.3449104,38.95705969,-99999.0,'11111222,11111222,99999999' 
TABS,ioos:station:wmo:42049:1,2010-06-03T05:30:00Z,28.3507,-96.0058,2.0,44.56480987,41.88314339,-99999.0,'11111222,11111222,99999999' 
TABS,ioos:station:wmo:42049:1,2010-06-03T06:00:00Z,28.3507,-96.0058,2.0,60.0674384,53.74950046,-99999.0,'11111222,11111222,99999999' 
TABS,ioos:station:wmo:42049:1,2010-06-03T06:30:00Z,28.3507,-96.0058,2.0,60.62850242,51.97041658,-99999.0,'11111222,11111222,99999999' 
TABS,ioos:station:wmo:42049:1,2010-06-03T07:00:00Z,28.3507,-96.0058,2.0,77.78255256,42.71749173,-99999.0,'11111222,11111222,99999999' 
TABS,ioos:station:wmo:42049:1,2010-06-03T07:30:00Z,28.3507,-96.0058,2.0,70.2823666,39.8357076,-99999.0,'11111222,11111222,99999999' 
TABS,ioos:station:wmo:42049:1,2010-06-03T08:00:00Z,28.3507,-96.0058,2.0,49.56969162,41.09331941,-99999.0,'11111222,11111222,99999999' 
TABS,ioos:station:wmo:42049:1,2010-06-03T08:30:00Z,28.3507,-96.0058,2.0,51.8046347,47.98284068,-99999.0,'11111222,11111222,99999999' 
TABS,ioos:station:wmo:42049:1,2010-06-03T09:00:00Z,28.3507,-96.0058,2.0,51.40914495,50.6768606,-99999.0,'11111222,11111222,99999999' 
TABS,ioos:station:wmo:42049:1,2010-06-03T09:30:00Z,28.3507,-96.0058,2.0,50.33886593,48.7898883,-99999.0,'11111222,11111222,99999999' 
TABS,ioos:station:wmo:42049:1,2010-06-03T10:00:00Z,28.3507,-96.0058,2.0,56.17481194,49.3656814,-99999.0,'11111222,11111222,99999999' 
TABS,ioos:station:wmo:42049:1,2010-06-03T10:30:00Z,28.3507,-96.0058,2.0,57.31637869,43.42585635,-99999.0,'11111222,11111222,99999999' 
TABS,ioos:station:wmo:42049:1,2010-06-03T11:00:00Z,28.3507,-96.0058,2.0,54.06338574,38.55911436,-99999.0,'11111222,11111222,99999999' 
TABS,ioos:station:wmo:42049:1,2010-06-03T11:30:00Z,28.3507,-96.0058,2.0,63.66711404,37.53494505,-99999.0,'11111222,11111222,99999999' 
TABS,ioos:station:wmo:42049:1,2010-06-03T12:00:00Z,28.3507,-96.0058,2.0,65.52970974,34.13626371,-99999.0,'11111222,11111222,99999999' 
TABS,ioos:station:wmo:42049:1,2010-06-03T12:30:00Z,28.3507,-96.0058,2.0,59.07044073,31.67407931,-99999.0,'11111222,11111222,99999999' 
TABS,ioos:station:wmo:42049:1,2010-06-03T13:00:00Z,28.3507,-96.0058,2.0,57.8820529,29.11607803,-99999.0,'11111222,11111222,99999999' 
TABS,ioos:station:wmo:42049:1,2010-06-03T13:30:00Z,28.3507,-96.0058,2.0,55.32132355,26.52139137,-99999.0,'11111222,11111222,99999999' 
TABS,ioos:station:wmo:42049:1,2010-06-03T14:00:00Z,28.3507,-96.0058,2.0,50.43703837,22.68705798,-99999.0,'11111222,11111222,99999999' 
TABS,ioos:station:wmo:42049:1,2010-06-03T14:30:00Z,28.3507,-96.0058,2.0,48.13959681,21.17427212,-99999.0,'11111222,11111222,99999999' 
TABS,ioos:station:wmo:42049:1,2010-06-03T15:00:00Z,28.3507,-96.0058,2.0,53.19041523,22.83201261,-99999.0,'11111222,11111222,99999999' 
TABS,ioos:station:wmo:42049:1,2010-06-03T15:30:00Z,28.3507,-96.0058,2.0,51.16307969,22.72339103,-99999.0,'11111222,11111222,99999999' 
TABS,ioos:station:wmo:42049:1,2010-06-03T16:00:00Z,28.3507,-96.0058,2.0,51.11141288,17.20267712,-99999.0,'11111222,11111222,99999999' 
TABS,ioos:station:wmo:42049:1,2010-06-03T16:30:00Z,28.3507,-96.0058,2.0,49.94001486,14.12388757,-99999.0,'11111222,11111222,99999999' 
TABS,ioos:station:wmo:42049:1,2010-06-03T17:00:00Z,28.3507,-96.0058,2.0,25.97571229,11.30168571,-99999.0,'11111222,11111222,99999999' 
TABS,ioos:station:wmo:42049:1,2010-06-03T17:30:00Z,28.3507,-96.0058,2.0,42.24100402,10.57643607,-99999.0,'11111222,11111222,99999999' 
TABS,ioos:station:wmo:42049:1,2010-06-03T18:00:00Z,28.3507,-96.0058,2.0,68.88525244,12.2419157,-99999.0,'11111222,11111222,99999999' 
TABS,ioos:station:wmo:42049:1,2010-06-03T18:30:00Z,28.3507,-96.0058,2.0,46.67049044,19.16366614,-99999.0,'11111222,11111222,99999999' 
TABS,ioos:station:wmo:42049:1,2010-06-03T19:00:00Z,28.3507,-96.0058,2.0,36.0103405,29.45931601,-99999.0,'11111222,11111222,99999999' 
TABS,ioos:station:wmo:42049:1,2010-06-03T19:30:00Z,28.3507,-96.0058,2.0,29.04270381,27.72632684,-99999.0,'11111222,11111222,99999999' 
TABS,ioos:station:wmo:42049:1,2010-06-03T20:00:00Z,28.3507,-96.0058,2.0,25.63474404,32.2215161,-99999.0,'11111222,11111222,99999999' 
TABS,ioos:station:wmo:42049:1,2010-06-03T20:30:00Z,28.3507,-96.0058,2.0,32.4774797,28.56791207,-99999.0,'11111222,11111222,99999999' 
TABS,ioos:station:wmo:42049:1,2010-06-03T21:00:00Z,28.3507,-96.0058,2.0,39.41884477,22.75651335,-99999.0,'11111222,11111222,99999999' 
TABS,ioos:station:wmo:42049:1,2010-06-03T21:30:00Z,28.3507,-96.0058,2.0,44.79011367,25.08124598,-99999.0,'11111222,11111222,99999999' 
TABS,ioos:station:wmo:42049:1,2010-06-03T22:00:00Z,28.3507,-96.0058,2.0,52.16539721,27.43788986,-99999.0,'11111222,11111222,99999999' 
TABS,ioos:station:wmo:42049:1,2010-06-03T22:30:00Z,28.3507,-96.0058,2.0,58.30707231,27.21903011,-99999.0,'11111222,11111222,99999999' 
TABS,ioos:station:wmo:42049:1,2010-06-03T23:00:00Z,28.3507,-96.0058,2.0,64.31346954,29.46142223,-99999.0,'11111222,11111222,99999999' 
TABS,ioos:station:wmo:42049:1,2010-06-03T23:30:00Z,28.3507,-96.0058,2.0,71.64615239,29.0581985,-99999.0,'11111222,11111222,99999999' 
TABS,ioos:station:wmo:42049:1,2010-06-04T00:00:00Z,28.3507,-96.0058,2.0,66.39904899,31.2215006,-99999.0,'11111222,11111222,99999999' 
TABS,ioos:station:wmo:42049:1,2010-06-04T00:30:00Z,28.3507,-96.0058,2.0,67.24356351,37.09779778,-99999.0,'11111222,11111222,99999999' 
TABS,ioos:station:wmo:42049:1,2010-06-04T01:00:00Z,28.3507,-96.0058,2.0,81.04416464,35.52307701,-99999.0,'11111222,11111222,99999999' 
TABS,ioos:station:wmo:42049:1,2010-06-04T01:30:00Z,28.3507,-96.0058,2.0,80.42944527,26.1033178,-99999.0,'11111222,11111222,99999999' 
TABS,ioos:station:wmo:42049:1,2010-06-04T02:00:00Z,28.3507,-96.0058,2.0,89.71288614,17.9602255,-99999.0,'11111222,11111222,99999999' 
TABS,ioos:station:wmo:42049:1,2010-06-04T02:30:00Z,28.3507,-96.0058,2.0,76.09868174,28.84484183,-99999.0,'11111222,11111222,99999999' 
TABS,ioos:station:wmo:42049:1,2010-06-04T03:00:00Z,28.3507,-96.0058,2.0,78.50718167,30.71586561,-99999.0,'11111222,11111222,99999999' 
TABS,ioos:station:wmo:42049:1,2010-06-04T03:30:00Z,28.3507,-96.0058,2.0,81.76554407,32.60616199,-99999.0,'11111222,11111222,99999999' 
TABS,ioos:station:wmo:42049:1,2010-06-04T04:00:00Z,28.3507,-96.0058,2.0,87.38541541,32.44377444,-99999.0,'11111222,11111222,99999999' 
TABS,ioos:station:wmo:42049:1,2010-06-04T04:30:00Z,28.3507,-96.0058,2.0,91.82960192,29.7551693,-99999.0,'11111222,11111222,99999999' 
TABS,ioos:station:wmo:42049:1,2010-06-04T05:00:00Z,28.3507,-96.0058,2.0,96.75760191,25.92007137,-99999.0,'11111222,11111222,99999999' 
TABS,ioos:station:wmo:42049:1,2010-06-04T05:30:00Z,28.3507,-96.0058,2.0,94.83590506,26.33374261,-99999.0,'11111222,11111222,99999999' 
TABS,ioos:station:wmo:42049:1,2010-06-04T06:00:00Z,28.3507,-96.0058,2.0,95.93794226,25.32588597,-99999.0,'11111222,11111222,99999999' 
TABS,ioos:station:wmo:42049:1,2010-06-04T06:30:00Z,28.3507,-96.0058,2.0,101.6329385,24.69729742,-99999.0,'11111222,11111222,99999999' 
TABS,ioos:station:wmo:42049:1,2010-06-04T07:00:00Z,28.3507,-96.0058,2.0,126.012564,28.60720189,-99999.0,'11111222,11111222,99999999' 
TABS,ioos:station:wmo:42049:1,2010-06-04T07:30:00Z,28.3507,-96.0058,2.0,128.7938994,27.34141547,-99999.0,'11111222,11111222,99999999' 
TABS,ioos:station:wmo:42049:1,2010-06-04T08:00:00Z,28.3507,-96.0058,2.0,133.3503271,21.37055217,-99999.0,'11111222,11111222,99999999' 
TABS,ioos:station:wmo:42049:1,2010-06-04T08:30:00Z,28.3507,-96.0058,2.0,133.0249654,21.7493816,-99999.0,'11111222,11111222,99999999' 
TABS,ioos:station:wmo:42049:1,2010-06-04T09:00:00Z,28.3507,-96.0058,2.0,127.8470682,18.05862675,-99999.0,'11111222,11111222,99999999' 
TABS,ioos:station:wmo:42049:1,2010-06-04T09:30:00Z,28.3507,-96.0058,2.0,123.9713839,20.33000738,-99999.0,'11111222,11111222,99999999' 
TABS,ioos:station:wmo:42049:1,2010-06-04T10:00:00Z,28.3507,-96.0058,2.0,106.6678945,19.28008817,-99999.0,'11111222,11111222,99999999' 
TABS,ioos:station:wmo:42049:1,2010-06-04T10:30:00Z,28.3507,-96.0058,2.0,106.8958464,15.07052753,-99999.0,'11111222,11111222,99999999' 
TABS,ioos:station:wmo:42049:1,2010-06-04T11:00:00Z,28.3507,-96.0058,2.0,108.6463278,4.284915402,-99999.0,'11133222,11111222,99999999' 
TABS,ioos:station:wmo:42049:1,2010-06-04T11:30:00Z,28.3507,-96.0058,2.0,82.00254523,13.44072171,-99999.0,'11111222,11111222,99999999' 
TABS,ioos:station:wmo:42049:1,2010-06-04T12:00:00Z,28.3507,-96.0058,2.0,88.50101679,16.05549439,-99999.0,'11111222,11111222,99999999' 
TABS,ioos:station:wmo:42049:1,2010-06-04T12:30:00Z,28.3507,-96.0058,2.0,90.77850389,19.87183434,-99999.0,'11111222,11111222,99999999' 
TABS,ioos:station:wmo:42049:1,2010-06-04T13:00:00Z,28.3507,-96.0058,2.0,83.43251583,13.63950512,-99999.0,'11111222,11111222,99999999' 
TABS,ioos:station:wmo:42049:1,2010-06-04T13:30:00Z,28.3507,-96.0058,2.0,60.69869835,24.35619018,-99999.0,'11111222,11111222,99999999' 
TABS,ioos:station:wmo:42049:1,2010-06-04T14:00:00Z,28.3507,-96.0058,2.0,66.22360252,33.4598939,-99999.0,'11111222,11111222,99999999' 
TABS,ioos:station:wmo:42049:1,2010-06-04T14:30:00Z,28.3507,-96.0058,2.0,78.64809864,32.10814227,-99999.0,'11111222,11111222,99999999' 
TABS,ioos:station:wmo:42049:1,2010-06-04T15:00:00Z,28.3507,-96.0058,2.0,75.87559479,31.51269109,-99999.0,'11111222,11111222,99999999' 
TABS,ioos:station:wmo:42049:1,2010-06-04T15:30:00Z,28.3507,-96.0058,2.0,75.30478082,30.78708333,-99999.0,'11111222,11111222,99999999' 
TABS,ioos:station:wmo:42049:1,2010-06-04T16:00:00Z,28.3507,-96.0058,2.0,66.85035079,33.85606297,-99999.0,'11111222,11111222,99999999' 
TABS,ioos:station:wmo:42049:1,2010-06-04T16:30:00Z,28.3507,-96.0058,2.0,67.24861847,37.18317496,-99999.0,'11111222,11111222,99999999' 
TABS,ioos:station:wmo:42049:1,2010-06-04T17:00:00Z,28.3507,-96.0058,2.0,70.28794043,39.01638758,-99999.0,'11111222,11111222,99999999' 
TABS,ioos:station:wmo:42049:1,2010-06-04T17:30:00Z,28.3507,-96.0058,2.0,86.00891412,72.98700227,-99999.0,'11111222,11111222,99999999' 
TABS,ioos:station:wmo:42049:1,2010-06-04T18:00:00Z,28.3507,-96.0058,2.0,79.12134504,72.69642701,-99999.0,'11111222,11111222,99999999' 
TABS,ioos:station:wmo:42049:1,2010-06-04T18:30:00Z,28.3507,-96.0058,2.0,80.78444967,70.62152788,-99999.0,'11111222,11111222,99999999' 